{"data":{"norad_id":54806,"epoch":"2026-09-20T14:42:20.219328Z","epoch_age_seconds":83681,"freshness":"FRESH","line1":"1 54806U 22175BA  26263.61273402  .00000913  00000+0  39091-4 0  9992","line2":"2 54806  53.1587 217.4667 0000903  97.4625 262.6480 15.33539641209786","mean_motion":15.33539641,"eccentricity":9.03e-5,"inclination_deg":53.1587,"raan_deg":217.4667,"arg_perigee_deg":97.4625,"mean_anomaly_deg":262.648,"bstar":3.9091e-5,"rev_number":20978,"period_min":93.900409321079,"perigee_km":464.64364503537,"apogee_km":465.87956282324,"semimajor_km":6843.3986039293,"source":"CELESTRAK","updated_at":"2026-09-21T09:00:33.130489Z"}}